This is the latest recevied weather packets stored in our database for station/object RW6A-13. If no packets are shown the sender has not sent any weather packets the latest 10 day(s).
| Time | Temp. | Humidity | Pressure | Rain* | Wind** | Luminosity | Snow |
|---|---|---|---|---|---|---|---|
| 1777724852 | 12.22° C | 60% | 1015.9 hPa | 0 mm | - | - | - |
| 1777724552 | 11.67° C | 60% | 1016 hPa | 0 mm | - | - | - |
| 1777724252 | 11.67° C | 62% | 1016 hPa | 0 mm | - | - | - |
| 1777723952 | 12.22° C | 63% | 1016 hPa | 0 mm | - | - | - |
| 1777723653 | 11.11° C | 65% | 1016.1 hPa | 0 mm | - | - | - |
| 1777723352 | 11.11° C | 68% | 1016.1 hPa | 0 mm | - | - | - |
| 1777723052 | 11.11° C | 66% | 1016.1 hPa | 0 mm | - | - | - |
| 1777722751 | 11.11° C | 62% | 1016.1 hPa | 0 mm | - | - | - |
| 1777722452 | 11.11° C | 60% | 1016.1 hPa | 0 mm | - | - | - |
| 1777722150 | 11.67° C | 59% | 1016.2 hPa | 0 mm | - | - | - |
| 1777721851 | 11.67° C | 57% | 1016 hPa | 0 mm | - | - | - |
| 1777721551 | 12.78° C | 55% | 1016.1 hPa | 0 mm | - | - | - |
| 1777721250 | 12.78° C | 54% | 1016 hPa | 0 mm | - | - | - |
| 1777720951 | 12.78° C | 59% | 1016.1 hPa | 0 mm | - | - | - |
| 1777720650 | 11.67° C | 59% | 1016.3 hPa | 0 mm | - | - | - |
| 1777720349 | 11.67° C | 60% | 1016.3 hPa | 0 mm | - | - | - |
| 1777720050 | 11.11° C | 60% | 1016.3 hPa | 0 mm | - | - | - |
| 1777719749 | 11.11° C | 64% | 1016.3 hPa | 0 mm | - | - | - |
| 1777719449 | 11.11° C | 65% | 1016.4 hPa | 0 mm | - | - | - |
| 1777719150 | 10.56° C | 67% | 1016.3 hPa | 0 mm | - | - | - |
| 1777718849 | 10.56° C | 68% | 1016.4 hPa | 0 mm | - | - | - |
| 1777718549 | 10.56° C | 68% | 1016.4 hPa | 0 mm | - | - | - |
| 1777718250 | 10.56° C | 68% | 1016.5 hPa | 0 mm | - | - | - |
| 1777717949 | 10.56° C | 66% | 1016.4 hPa | 0 mm | - | - | - |
| 1777717649 | 10.56° C | 68% | 1016.5 hPa | 0 mm | - | - | - |
* Rain latest hour (hover to see other rain measurements)
** Current wind speed in m/s (hover to see current wind gust speed)